User: anonymous   Login
Location: Camp Creek
(33.9000°N, 111.8167°W)
Time: 05:14:50
(UTC-07:00)
Language:

Cosmos 2322 Rocket - Orbit

View from above orbital plane
View from above orbital plane
View from above satellite
View from above satellite

Ground track
Ground track

The orbit data is extracted from the following two-line orbital elements,

1 23705U 95058B   18054.46131784 -.00000224 +00000-0 -90776-4 0  9999
2 23705 071.0206 221.8423 0014988 274.3663 085.5747 14.15112311152732
Epoch (UTC): 23 February 2018 11:04:17
Eccentricity: 0.0014988
inclination: 71.0206°
perigee height: 831 km
apogee height: 853 km
right ascension of ascending node: 221.8423°
argument of perigee: 274.3663°
revolutions per day: 14.15112311
mean anomaly at epoch: 85.5747°
orbit number at epoch: 15273

The dashed part of the orbit path shows where the satellite is in the earth's shadow,  

DLR